Location: Fontevrault
(47.1823°N, 0.0493°E)
Time: 09:08:57
(UTC+00:00)

Cosmos 2228 - Pass Details

Date: 16 June 2021
Orbit: 588 x 618 km, 82.5° (Epoch: 03 August)

Event Time Altitude Azimuth Distance (km) Brightness Sun altitude
Rises 22:53:02 0° 348° (NNW) 2,904 8.2 -17.8°
Reaches altitude 10° 22:55:17 10° 347° (NNW) 1,995 7.0 -17.9°
Maximum altitude 22:59:41 71° 263° (W) 659 3.1 -18.1°
Enters shadow 23:01:22 36° 190° (S) 976 3.6 -18.2°
